DW6860 Weather Reports


Display with metric or nautical units.
time (UTC)temp
F
wind
direction
speed
MPH
gust
MPH
rain 1hr
in
rain 24hr
in
rain mn
in
humidity
%
barometer
mb
20260903154923 75 251 4.0 11.0 0.00 0.05 0.05 68 1016.8
20260903154114 75 350 4.0 18.0 0.00 0.05 0.05 68 1017.0
20260903153613 75 319 4.0 18.0 0.00 0.05 0.05 68 1016.9
20260903153112 75 339 5.0 12.0 0.00 0.05 0.05 67 1016.8
20260903152613 76 178 5.0 14.0 0.00 0.05 0.05 67 1016.9
20260903152113 75 241 5.0 14.0 0.00 0.05 0.05 66 1017.0
20260903151615 75 290 7.0 16.0 0.00 0.05 0.05 67 1017.0
20260903151114 75 311 6.0 16.0 0.00 0.05 0.05 65 1017.1
20260903150937 75 344 6.0 14.0 0.00 0.05 0.05 66 1017.0
20260903150456 76 300 6.0 14.0 0.00 0.05 0.05 65 1017.0
20260903145618 76 321 6.0 14.0 0.00 0.05 0.05 66 1016.9
20260903145114 76 203 6.0 14.0 0.00 0.05 0.05 66 1017.1
20260903144614 76 255 5.0 14.0 0.00 0.05 0.05 67 1017.0
20260903144441 76 327 6.0 18.0 0.00 0.05 0.05 67 1016.9
20260903143621 76 286 7.0 18.0 0.00 0.05 0.05 66 1016.8
20260903143117 76 258 6.0 22.0 0.00 0.05 0.05 67 1016.6
20260903142609 77 244 6.0 22.0 0.00 0.05 0.05 67 1016.8
20260903142536 76 325 6.0 21.0 0.00 0.05 0.05 67 1016.9
20260903141607 76 190 6.0 17.0 0.00 0.05 0.05 68 1016.9
20260903141109 76 296 6.0 19.0 0.00 0.05 0.05 68 1017.0
20260903140950 76 256 6.0 19.0 0.00 0.05 0.05 70 1016.9
20260903140112 75 205 6.0 16.0 0.00 0.05 0.05 71 1017.1
20260903135604 75 325 6.0 16.0 0.00 0.05 0.05 70 1016.9
20260903135424 75 267 6.0 15.0 0.00 0.05 0.05 70 1016.8
20260903135420 76 283 5.0 15.0 0.00 0.05 0.05 71 1016.8
20260903135240 76 326 4.0 13.0 0.00 0.05 0.05 70 1016.9
20260903133948 75 228 6.0 18.0 0.00 0.05 0.05 71 1016.9
20260903133100 74 188 6.0 18.0 0.00 0.05 0.05 74 1016.7
20260903132557 73 269 5.0 17.0 0.00 0.05 0.05 73 1016.8
20260903132455 74 229 5.0 12.0 0.00 0.05 0.05 74 1016.8
20260903131554 73 234 5.0 15.0 0.00 0.05 0.05 74 1016.8
20260903131052 73 292 7.0 25.0 0.00 0.05 0.05 75 1016.8
20260903130555 73 200 6.0 25.0 0.00 0.05 0.05 74 1016.8
20260903130107 73 348 5.0 19.0 0.00 0.05 0.05 75 1016.8
20260903125551 73 236 6.0 19.0 0.00 0.05 0.05 74 1016.8
20260903125051 73 180 6.0 16.0 0.00 0.05 0.05 73 1016.7
20260903124550 73 316 7.0 16.0 0.00 0.05 0.05 73 1016.7
20260903124052 73 180 7.0 16.0 0.00 0.05 0.05 72 1016.6
20260903123551 73 199 7.0 20.0 0.00 0.05 0.05 72 1016.6
20260903123050 73 235 7.0 20.0 0.00 0.05 0.05 72 1016.5
20260903122909 74 180 7.0 18.0 0.00 0.05 0.05 73 1016.6
20260903122044 74 217 7.0 18.0 0.00 0.05 0.05 74 1016.6
20260903121543 74 205 7.0 17.0 0.00 0.05 0.05 74 1016.5
20260903121043 73 220 7.0 17.0 0.00 0.05 0.05 74 1016.4
20260903120542 74 273 6.0 15.0 0.00 0.05 0.05 75 1016.6
20260903120055 74 177 6.0 15.0 0.00 0.05 0.05 76 1016.2
20260903115542 73 355 6.0 15.0 0.00 0.05 0.05 79 1016.5
20260903115041 72 259 5.0 15.0 0.00 0.05 0.05 79 1016.5
20260903114543 72 246 5.0 15.0 0.00 0.05 0.05 79 1016.6
20260903114043 72 315 5.0 15.0 0.00 0.05 0.05 79 1016.4
20260903113538 72 193 6.0 14.0 0.00 0.05 0.05 79 1016.4
20260903113040 72 196 6.0 15.0 0.00 0.05 0.05 80 1016.5
20260903112537 72 202 7.0 19.0 0.00 0.05 0.05 80 1016.3
20260903112036 72 212 6.0 19.0 0.00 0.05 0.05 80 1016.5
20260903111541 71 196 5.0 15.0 0.00 0.05 0.05 83 1016.6
20260903111354 71 219 4.0 13.0 0.00 0.05 0.05 84 1016.5
20260903110549 70 276 4.0 12.0 0.00 0.05 0.05 86 1016.4
20260903110033 70 321 5.0 15.0 0.00 0.05 0.05 86 1016.5
20260903105531 69 160 7.0 15.0 0.00 0.05 0.05 87 1016.6
20260903105342 69 131 6.0 13.0 0.00 0.05 0.05 87 1016.3
20260903104531 69 280 4.0 11.0 0.00 0.05 0.05 88 1016.5
20260903104032 69 189 5.0 14.0 0.00 0.05 0.05 89 1016.5
20260903103532 69 235 5.0 14.0 0.00 0.05 0.05 89 1016.4
20260903103032 69 293 5.0 14.0 0.01 0.05 0.05 91 1016.5
20260903102527 68 180 5.0 14.0 0.01 0.05 0.05 92 1016.4
20260903102356 67 234 4.0 12.0 0.01 0.05 0.05 92 1016.5
20260903101526 67 216 4.0 10.0 0.01 0.05 0.05 92 1016.5
20260903101028 67 258 5.0 11.0 0.01 0.05 0.05 92 1016.5
20260903100525 67 168 4.0 11.0 0.01 0.05 0.05 92 1016.4
20260903100049 67 172 4.0 11.0 0.01 0.05 0.05 93 1016.5
20260903095524 67 267 5.0 14.0 0.01 0.04 0.05 93 1016.5
20260903095026 67 228 5.0 14.0 0.01 0.04 0.05 93 1016.3
20260903094525 66 230 4.0 10.0 0.01 0.04 0.05 92 1016.2
20260903094022 66 198 5.0 11.0 0.01 0.04 0.05 92 1016.2
20260903093524 66 178 5.0 13.0 0.01 0.04 0.05 92 1016.4
20260903093021 66 277 5.0 13.0 0.00 0.04 0.04 92 1016.4
20260903092527 66 271 5.0 11.0 0.00 0.04 0.04 92 1016.1
20260903092022 66 251 4.0 10.0 0.00 0.04 0.04 92 1016.1
20260903091829 66 218 5.0 12.0 0.00 0.04 0.04 92 1016.0
20260903091021 66 228 4.0 12.0 0.00 0.04 0.04 92 1015.9
20260903090840 66 210 4.0 12.0 0.00 0.04 0.04 92 1016.0
20260903090031 66 229 5.0 12.0 0.00 0.04 0.04 92 1015.9
20260903085517 66 196 6.0 12.0 0.00 0.04 0.04 92 1015.9
20260903085021 66 215 6.0 12.0 0.00 0.04 0.04 92 1015.8
20260903084523 66 208 6.0 13.0 0.00 0.04 0.04 92 1015.7
20260903084030 66 224 6.0 13.0 0.00 0.04 0.04 92 1015.7
20260903083526 66 236 6.0 14.0 0.00 0.04 0.04 92 1015.6
20260903083023 66 205 6.0 14.0 0.00 0.04 0.04 92 1015.6
20260903082518 66 188 5.0 13.0 0.00 0.04 0.04 92 1015.7
20260903082020 66 204 5.0 11.0 0.00 0.04 0.04 92 1015.7
20260903081516 66 217 6.0 13.0 0.00 0.04 0.04 92 1015.7
20260903081017 66 221 6.0 13.0 0.00 0.04 0.04 91 1015.6
20260903080546 65 240 6.0 14.0 0.01 0.04 0.04 91 1015.6
20260903080526 65 254 5.0 12.0 0.00 0.04 0.04 91 1015.6
20260903075516 65 219 5.0 16.0 0.01 0.03 0.04 91 1015.8
20260903075017 65 173 4.0 16.0 0.01 0.03 0.04 91 1015.8
20260903074514 65 205 4.0 9.0 0.01 0.03 0.04 90 1015.9
20260903074019 65 195 4.0 9.0 0.01 0.03 0.04 90 1015.9
20260903073508 65 225 5.0 10.0 0.01 0.03 0.04 90 1016.0
20260903073017 65 180 5.0 10.0 0.01 0.03 0.04 90 1016.1
20260903072520 65 180 4.0 10.0 0.04 0.03 0.04 89 1016.0
20260903072006 65 200 3.0 9.0 0.04 0.03 0.04 89 1016.1
20260903071502 65 242 4.0 10.0 0.04 0.03 0.04 89 1016.0
20260903070959 65 257 5.0 10.0 0.04 0.03 0.04 88 1015.9
20260903070835 65 216 5.0 10.0 0.04 0.03 0.04 88 1015.9
20260903070346 66 206 4.0 9.0 0.03 0.00 0.03 87 1015.9
20260903065457 66 180 4.0 9.0 0.03 0.00 0.03 87 1015.9
20260903064958 66 198 4.0 10.0 0.03 0.00 0.03 86 1015.8
20260903064833 66 233 5.0 12.0 0.03 0.00 0.03 85 1015.9
20260903063958 66 196 4.0 12.0 0.03 0.00 0.03 85 1015.8
20260903063454 67 220 5.0 11.0 0.03 0.00 0.03 84 1015.7
20260903062953 67 265 5.0 11.0 0.02 0.00 0.02 83 1015.7
20260903062452 67 214 5.0 12.0 0.00 0.00 0.00 82 1015.7
20260903061952 67 223 5.0 12.0 0.00 0.00 0.00 82 1015.6
20260903061455 67 204 5.0 11.0 0.00 0.00 0.00 81 1015.5
20260903060953 67 226 4.0 11.0 0.00 0.00 0.00 81 1015.5
20260903060452 66 217 3.0 9.0 0.00 0.00 0.00 81 1015.5
20260903055950 66 188 4.0 10.0 0.00 0.00 0.00 81 1015.4
20260903055446 66 196 5.0 11.0 0.00 0.00 0.00 81 1015.5
20260903055358 66 239 5.0 10.0 0.00 0.00 0.00 80 1015.5
20260903055354 66 211 4.0 12.0 0.00 0.00 0.00 80 1015.4
20260903055345 66 238 4.0 12.0 0.00 0.00 0.00 80 1015.5
20260903054112 66 228 4.0 10.0 0.00 0.00 0.00 80 1015.6
20260903052937 66 201 5.0 12.0 0.00 0.00 0.00 80 1015.5
20260903052437 66 204 4.0 12.0 0.00 0.00 0.00 80 1015.6
20260903051935 66 228 4.0 9.0 0.00 0.00 0.00 80 1015.5
20260903051435 66 213 5.0 11.0 0.00 0.00 0.00 80 1015.4
20260903050937 66 196 5.0 11.0 0.00 0.00 0.00 80 1015.6
20260903050439 66 197 4.0 10.0 0.00 0.00 0.00 80 1015.5
20260903045933 66 211 5.0 10.0 0.00 0.00 0.00 79 1015.3
20260903045432 66 217 4.0 10.0 0.00 0.00 0.00 79 1015.5
20260903044934 66 186 4.0 8.0 0.00 0.00 0.00 79 1015.6
20260903044431 66 218 5.0 12.0 0.00 0.00 0.00 79 1015.4
20260903043933 66 230 5.0 12.0 0.00 0.00 0.00 78 1015.4
20260903043433 66 175 5.0 11.0 0.00 0.00 0.00 78 1015.4
20260903043035 65 261 4.0 9.0 0.00 0.00 0.00 77 1015.7
20260903043029 65 180 5.0 9.0 0.00 0.00 0.00 77 1015.7
20260903043024 65 212 5.0 9.0 0.00 0.00 0.00 77 1015.7
20260903042952 66 195 5.0 10.0 0.00 0.00 0.00 78 1015.3
20260903042743 66 227 4.0 9.0 0.00 0.00 0.00 77 1015.3
20260903042554 65 182 4.0 9.0 0.00 0.00 0.00 77 1015.3
20260903042359 65 211 4.0 8.0 0.00 0.00 0.00 77 1015.6
20260903041134 65 180 5.0 9.0 0.00 0.00 0.00 77 1015.7
20260903035630 65 229 5.0 9.0 0.00 0.00 0.00 76 1015.9
20260903034934 65 178 4.0 10.0 0.00 0.00 0.00 76 1016.0
20260903034752 65 221 5.0 11.0 0.00 0.00 0.00 76 1016.0
20260903033934 65 198 4.0 11.0 0.00 0.00 0.00 76 1015.9
20260903033434 65 215 4.0 13.0 0.00 0.00 0.00 76 1015.9
20260903032933 65 176 4.0 13.0 0.00 0.00 0.00 77 1015.8
20260903032747 65 233 4.0 11.0 0.00 0.00 0.00 77 1015.8
20260903031930 65 239 4.0 11.0 0.00 0.00 0.00 77 1015.7
20260903031430 65 216 4.0 9.0 0.00 0.00 0.00 77 1015.7
20260903030930 65 173 4.0 11.0 0.00 0.00 0.00 77 1015.6
20260903030430 65 174 5.0 11.0 0.00 0.00 0.00 77 1015.8
20260903025933 65 184 4.0 10.0 0.00 0.00 0.00 77 1015.9
20260903025433 65 196 5.0 14.0 0.00 0.00 0.00 77 1016.0
20260903024933 65 184 5.0 14.0 0.00 0.00 0.00 77 1016.0
20260903024428 65 221 5.0 12.0 0.00 0.00 0.00 77 1016.0
20260903023931 65 192 5.0 12.0 0.00 0.00 0.00 77 1016.1
20260903023427 65 218 5.0 10.0 0.00 0.00 0.00 78 1016.3
20260903022927 65 209 5.0 10.0 0.00 0.00 0.00 78 1016.3
20260903022428 65 225 5.0 10.0 0.00 0.00 0.00 79 1016.4
20260903021926 65 204 4.0 8.0 0.00 0.00 0.00 79 1016.3
20260903021427 65 190 4.0 9.0 0.00 0.00 0.00 79 1016.3
20260903020924 65 231 5.0 11.0 0.00 0.00 0.00 79 1016.4
20260903020434 65 191 6.0 12.0 0.00 0.00 0.00 80 1016.3
20260903015926 65 229 6.0 16.0 0.00 0.00 0.00 80 1016.4
20260903015421 65 236 6.0 16.0 0.00 0.00 0.00 80 1016.4
20260903014916 64 217 4.0 13.0 0.00 0.00 0.00 81 1016.5
20260903014419 64 157 5.0 12.0 0.00 0.00 0.00 81 1016.6
20260903013915 64 224 5.0 12.0 0.00 0.00 0.00 81 1016.6
20260903013416 64 218 4.0 9.0 0.00 0.00 0.00 81 1016.5
20260903013233 64 198 3.0 9.0 0.00 0.00 0.00 81 1016.6
20260903012433 64 175 4.0 11.0 0.00 0.00 0.00 80 1016.8
20260903012422 64 181 3.0 6.0 0.00 0.00 0.00 80 1016.6
20260903012026 64 222 4.0 11.0 0.00 0.00 0.00 80 1016.7
20260903010916 65 167 4.0 9.0 0.00 0.00 0.00 80 1016.8
20260903010418 65 186 4.0 7.0 0.00 0.00 0.00 79 1016.9
20260903005916 65 233 3.0 7.0 0.00 0.00 0.00 78 1017.0
20260903005414 65 209 4.0 9.0 0.00 0.00 0.00 77 1017.1
20260903004912 65 257 5.0 12.0 0.00 0.00 0.00 76 1017.1
20260903004414 65 222 6.0 12.0 0.00 0.00 0.00 75 1017.2
20260903003913 65 221 5.0 10.0 0.00 0.00 0.00 74 1017.4
20260903003413 65 213 5.0 10.0 0.00 0.00 0.00 73 1017.4
20260903002912 65 204 4.0 10.0 0.00 0.00 0.00 72 1017.1
20260903002739 65 203 4.0 11.0 0.00 0.00 0.00 72 1017.1
20260903001900 65 206 5.0 12.0 0.00 0.00 0.00 72 1017.1
20260903001405 65 231 5.0 12.0 0.00 0.00 0.00 73 1017.2
20260903000916 65 200 4.0 10.0 0.00 0.00 0.00 73 1017.3
20260903000402 65 162 3.0 10.0 0.00 0.00 0.00 73 1017.4
20260903000126 65 206 4.0 8.0 0.00 0.00 0.00 73 1017.4
20260903000020 65 218 3.0 8.0 0.00 0.00 0.00 73 1017.4
20260902234854 65 183 4.0 8.0 0.00 0.00 0.00 73 1017.2
20260902234723 65 198 4.0 8.0 0.00 0.00 0.00 73 1017.4
20260902233851 66 178 3.0 8.0 0.00 0.00 0.00 73 1017.5
20260902233346 66 200 2.0 6.0 0.00 0.00 0.00 73 1017.6
20260902232859 66 188 3.0 9.0 0.00 0.00 0.00 73 1017.7
20260902232348 65 180 3.0 9.0 0.00 0.00 0.00 73 1017.7
20260902231846 65 246 3.0 8.0 0.00 0.00 0.00 73 1017.7
20260902231347 65 182 3.0 6.0 0.00 0.00 0.00 74 1017.7
20260902230846 65 198 3.0 6.0 0.00 0.00 0.00 74 1017.9
20260902230355 65 206 3.0 6.0 0.00 0.00 0.00 74 1018.0
20260902225842 65 217 3.0 6.0 0.00 0.00 0.00 74 1018.0
20260902225344 65 234 3.0 8.0 0.00 0.00 0.00 74 1018.2
20260902224843 65 188 3.0 8.0 0.00 0.00 0.00 74 1018.3
20260902224340 65 175 3.0 9.0 0.00 0.00 0.00 74 1018.2
20260902223839 65 197 4.0 9.0 0.00 0.00 0.00 74 1018.3
20260902223339 65 177 4.0 9.0 0.00 0.00 0.00 74 1018.5
20260902222836 65 219 4.0 9.0 0.00 0.00 0.00 74 1018.4
20260902222337 65 228 4.0 9.0 0.00 0.00 0.00 75 1018.4
20260902221837 65 249 3.0 7.0 0.00 0.00 0.00 75 1018.4
20260902221336 65 219 3.0 7.0 0.00 0.00 0.00 76 1018.6
20260902220834 65 189 3.0 7.0 0.00 0.00 0.00 76 1018.5
20260902220337 65 178 3.0 8.0 0.00 0.00 0.00 76 1018.5
20260902220214 65 188 2.0 8.0 0.00 0.00 0.00 77 1018.5
20260902215334 65 217 3.0 9.0 0.00 0.00 0.00 77 1018.6
20260902214833 65 186 3.0 10.0 0.00 0.00 0.00 78 1018.4
20260902214333 65 216 3.0 10.0 0.00 0.00 0.00 78 1018.4
20260902213833 65 186 2.0 5.0 0.00 0.00 0.00 78 1018.4
20260902213330 65 186 2.0 5.0 0.00 0.00 0.00 78 1018.4
20260902212828 65 182 2.0 5.0 0.00 0.00 0.00 78 1018.3
20260902212324 65 209 2.0 6.0 0.00 0.00 0.00 78 1018.3
20260902211817 65 176 2.0 7.0 0.00 0.00 0.00 78 1018.3
20260902211318 65 194 2.0 7.0 0.00 0.00 0.00 79 1018.4
20260902210814 65 199 2.0 9.0 0.00 0.00 0.00 79 1018.6
20260902210647 65 184 2.0 9.0 0.00 0.00 0.00 79 1018.6
20260902205815 65 184 2.0 5.0 0.00 0.00 0.00 79 1018.6
20260902205313 65 169 2.0 6.0 0.00 0.00 0.00 79 1018.5
20260902204810 65 185 2.0 6.0 0.00 0.00 0.00 79 1018.6
20260902204307 65 161 2.0 5.0 0.00 0.00 0.00 79 1018.6
20260902203810 65 188 2.0 4.0 0.00 0.00 0.00 79 1018.6
20260902203314 65 176 1.0 4.0 0.00 0.00 0.00 79 1018.6
20260902202807 65 200 1.0 3.0 0.00 0.00 0.00 79 1018.7
20260902202306 65 200 1.0 3.0 0.00 0.00 0.00 79 1018.8
20260902202155 65 200 1.0 3.0 0.00 0.00 0.00 79 1018.7
20260902201527 65 200 1.0 3.0 0.00 0.00 0.00 79 1018.8
20260902201427 65 200 1.0 3.0 0.00 0.00 0.00 79 1018.7
20260902200311 65 200 1.0 3.0 0.00 0.00 0.00 78 1018.7
20260902195819 65 200 1.0 3.0 0.00 0.00 0.00 78 1018.8
20260902195309 65 200 0.0 2.0 0.00 0.00 0.00 78 1018.8
20260902194840 69 250 3.0 5.0 0.00 0.00 0.00 71 1019.0
20260902194836 69 226 3.0 5.0 0.00 0.00 0.00 71 1019.0
20260902194829 66 200 1.0 3.0 0.00 0.00 0.00 78 1019.0
20260902194825 66 200 1.0 3.0 0.00 0.00 0.00 78 1019.0
20260902194821 67 210 0.0 3.0 0.00 0.00 0.00 77 1019.0
20260902194810 65 200 1.0 3.0 0.00 0.00 0.00 78 1018.8
20260902194754 67 210 2.0 4.0 0.00 0.00 0.00 76 1019.2
20260902194750 69 192 1.0 4.0 0.00 0.00 0.00 73 1019.1
20260902194746 69 192 2.0 4.0 0.00 0.00 0.00 73 1019.0
20260902194739 69 192 1.0 3.0 0.00 0.00 0.00 72 1019.1
20260902194734 69 192 2.0 4.0 0.00 0.00 0.00 72 1019.0
20260902193944 69 261 3.0 5.0 0.00 0.00 0.00 71 1019.0
20260902193939 69 190 3.0 5.0 0.00 0.00 0.00 71 1019.0
20260902193903 66 200 1.0 3.0 0.00 0.00 0.00 78 1018.9
20260902193032 66 200 1.0 4.0 0.00 0.00 0.00 77 1019.1
20260902192845 66 176 1.0 4.0 0.00 0.00 0.00 77 1019.0
20260902192641 66 176 1.0 4.0 0.00 0.00 0.00 77 1019.0
20260902192447 66 210 1.0 3.0 0.00 0.00 0.00 77 1019.0
20260902191839 67 210 0.0 3.0 0.00 0.00 0.00 76 1018.9
20260902191645 67 210 0.0 2.0 0.00 0.00 0.00 76 1019.0
20260902191455 67 210 0.0 2.0 0.00 0.00 0.00 76 1019.0
20260902191304 67 210 1.0 2.0 0.00 0.00 0.00 76 1019.0
20260902191118 67 210 1.0 4.0 0.00 0.00 0.00 76 1019.1
20260902190937 67 210 1.0 4.0 0.00 0.00 0.00 76 1019.1
20260902190348 68 177 2.0 6.0 0.00 0.00 0.00 75 1019.1
20260902190149 68 191 2.0 6.0 0.00 0.00 0.00 75 1019.1
20260902185948 68 211 1.0 3.0 0.00 0.00 0.00 75 1019.1
20260902185753 68 202 2.0 6.0 0.00 0.00 0.00 75 1019.1
20260902185604 68 196 3.0 9.0 0.00 0.00 0.00 74 1019.1
20260902185415 69 187 1.0 9.0 0.00 0.00 0.00 74 1019.2
20260902185217 69 192 1.0 3.0 0.00 0.00 0.00 73 1019.1
20260902184626 69 192 1.0 4.0 0.00 0.00 0.00 73 1018.9
20260902184040 69 192 2.0 4.0 0.00 0.00 0.00 72 1019.0
20260902183449 69 192 2.0 4.0 0.00 0.00 0.00 72 1019.0
20260902182354 69 192 2.0 3.0 0.00 0.00 0.00 71 1018.9
20260902181351 69 268 2.0 4.0 0.00 0.00 0.00 71 1018.9
20260902181326 0 0.0 4.0 0.00 0.00 0.00
20260902180708 69 250 3.0 5.0 0.00 0.00 0.00 71 1019.0
20260902165947 69 195 3.0 5.0 0.00 0.00 0.00 71 1019.1
20260902164052 69 267 3.0 7.0 0.00 0.00 0.00 72 1019.1
20260902163551 69 200 3.0 7.0 0.00 0.00 0.00 72 1019.0
20260902163424 69 233 2.0 7.0 0.00 0.00 0.00 72 1019.1
20260902162537 69 227 3.0 7.0 0.00 0.00 0.00 71 1019.2
20260902162359 70 208 3.0 7.0 0.00 0.00 0.00 71 1019.3
20260902161536 70 207 3.0 6.0 0.00 0.00 0.00 71 1019.4
20260902161037 70 178 3.0 7.0 0.00 0.00 0.00 72 1019.4
20260902160919 69 194 2.0 7.0 0.00 0.00 0.00 72 1019.5
20260902160034 69 271 2.0 8.0 0.00 0.00 0.00 73 1019.4